Temp
70 76 80 80 80 80 80 80 80 80 80 80 80 80 80 80 80 80 80 80 80 81 81 81 82 81 81 82 81 80 80 81 81 81 81 81 80 80 80 81 81 81 79
73 77 80 80 80 80 80 80 80 79 79 80 80 80 80 80 80 80 80 80 80 81 81 81 82 81 81 81 81 80 80 80 80 81 81 81 81 80 80 81 81 81 79
74 77 79 79 80 80 79 79 79 79 79 79 79 79 79 80 80 80 79 80 80 81 81 81 81 81 81 81 81 80 80 80 80 81 81 81 81 81 81 81 81 80 79
76 76 77 79 80 80 79 79 79 79 79 79 79 79 79 79 79 80 79 80 81 81 81 81 81 81 81 81 81 80 80 80 80 81 80 79 81 81 81 81 81 80 79
75 76 77 79 79 80 79 79 79 79 79 79 79 79 79 79 79 79 79 79 81 81 82 81 81 81 81 80 80 79 80 80 81 80 76 77 77 81 81 81 81 80 79
76 76 79 79 79 79 79 79 79 79 79 79 79 79 79 79 79 79 79 79 80 81 81 81 81 80 80 80 79 79 79 79 81 77 75 75 76 78 81 80 81 80 79
76 76 79 79 79 79 80 79 79 79 79 79 79 79 79 79 79 78 79 79 80 80 81 81 80 79 79 79 79 78 78 79 78 74 74 74 76 76 81 80 80 79 79
74 75 78 79 79 79 79 79 79 78 78 78 79 79 79 79 78 78 79 79 79 80 80 80 79 79 78 78 78 78 78 79 80 74 74 73 74 77 80 80 79 79 79
76 77 75 76 78 79 79 79 78 78 78 78 78 78 78 78 78 78 78 79 79 79 79 79 79 78 78 77 78 78 78 79 78 74 75 74 74 77 79 80 79 79 79
76 76 77 77 75 75 76 79 79 78 78 78 78 78 78 78 78 78 77 78 79 78 78 78 78 78 77 77 77 77 78 79 79 73 73 73 75 78 79 79 79 79 78
74 76 77 77 77 74 74 76 79 79 79 78 78 78 77 74 74 76 77 77 78 78 78 78 78 77 77 77 77 77 78 76 73 73 73 73 76 78 79 79 79 79 79
68 71 75 76 77 77 76 74 74 74 75 74 74 74 74 72 72 75 76 78 78 78 78 78 78 77 78 75 75 77 77 74 72 71 71 74 76 78 80 80 79 79 79
70 70 72 74 75 75 74 72 74 75 72 72 72 72 72 73 72 73 72 74 75 76 76 77 76 76 76 74 72 72 72 71 70 71 73 75 76 78 80 80 79 79 78
74 72 72 71 70 72 71 70 73 74 73 73 73 71 70 72 70 70 71 71 71 72 72 73 73 74 73 73 72 72 71 71 69 70 69 74 76 77 79 80 79 79 78
74 74 73 71 70 70 69 69 69 70 70 71 70 71 71 70 69 69 70 70 69 70 71 71 72 72 72 72 72 71 71 70 70 69 68 73 75 76 78 80 79 79 78
74 74 75 73 72 71 68 68 69 70 70 69 69 71 71 70 69 68 68 68 68 69 70 71 71 71 70 70 70 70 71 70 70 69 69 69 73 76 77 78 80 80 79
71 71 74 74 73 70 67 67 67 68 69 68 70 70 70 69 68 67 67 68 69 69 69 68 69 70 69 68 68 69 69 70 69 70 69 69 70 74 76 77 78 78 76
71 70 69 74 74 72 68 67 68 69 69 68 68 69 69 68 68 68 67 67 67 68 69 67 67 66 66 66 67 67 67 68 69 68 69 68 67 69 70 74 76 76 76
69 69 69 69 70 70 69 67 68 68 69 68 68 67 67 67 67 65 65 65 66 65 65 66 66 66 65 66 65 66 66 66 67 67 68 68 68 69 67 69 72 73 74
70 69 69 68 68 68 69 69 68 67 66 66 66 66 66 66 67 65 65 64 65 64 64 65 64 66 65 64 65 65 65 65 66 66 67 69 68 68 69 68 68 68 71
68 68 67 67 67 67 67 67 67 65 65 65 65 66 67 66 66 65 65 64 64 63 64 65 64 65 64 63 63 63 64 65 65 66 68 68 68 68 68 68 67 67 70
66 66 66 66 66 67 66 65 67 67 67 65 64 64 65 65 65 65 64 64 63 62 64 64 64 63 64 64 64 62 60 62 62 64 65 65 65 66 66 67 67 66 67
65 65 65 63 64 65 66 65 66 67 66 66 65 66 66 66 66 67 65 64 64 62 63 64 64 64 63 63 64 63 56 57 59 62 63 63 63 64 65 66 65 64 64
63 64 63 63 62 64 65 64 63 63 62 65 65 65 65 67 66 67 65 66 66 65 64 65 66 64 63 62 62 64 62 61 57 57 61 62 63 64 65 63 63 63 64
63 62 62 62 62 62 62 63 62 62 62 63 63 63 63 64 66 66 64 63 63 63 64 65 65 63 65 64 62 61 60 58 60 57 55 58 59 61 60 61 62 62 63
63 64 62 60 61 61 61 61 61 60 61 61 61 61 61 61 62 63 63 61 63 62 62 63 64 64 64 64 63 61 59 57 56 56 56 56 56 58 58 57 57 58 58
MSLP
1008.08 1008.01 1008.27 1008.85 1009.43 1009.82 1009.93 1010.06 1010.21 1010.33 1010.26 1010.37 1010.60 1010.93 1011.15 1011.58 1012.12 1012.46 1012.77 1013.02 1013.21 1013.27 1013.41 1013.56 1013.75 1013.94 1014.00 1014.18 1014.36 1014.56 1014.69 1014.79 1014.94 1015.11 1015.34 1015.58 1015.77 1015.96 1016.11 1016.23 1016.36 1016.56 1016.62
1007.33 1007.88 1008.42 1008.74 1009.27 1009.82 1009.99 1010.15 1010.30 1010.48 1010.58 1010.60 1010.78 1011.08 1011.35 1011.72 1012.18 1012.54 1012.70 1012.89 1013.08 1013.14 1013.33 1013.43 1013.74 1013.90 1014.13 1014.29 1014.47 1014.62 1014.80 1015.01 1015.00 1015.19 1015.17 1015.41 1015.61 1015.91 1016.12 1016.26 1016.36 1016.48 1016.57
1007.28 1007.64 1008.24 1008.65 1009.16 1009.73 1009.98 1010.26 1010.38 1010.58 1010.65 1010.77 1010.96 1011.22 1011.60 1011.99 1012.22 1012.45 1012.71 1012.91 1013.08 1013.21 1013.34 1013.54 1013.87 1014.07 1014.28 1014.44 1014.64 1014.73 1014.87 1015.08 1015.06 1015.12 1015.31 1015.55 1015.71 1015.86 1016.02 1016.09 1016.22 1016.44 1016.53
1007.41 1007.65 1007.99 1008.61 1009.03 1009.63 1009.95 1010.26 1010.46 1010.63 1010.75 1010.92 1011.09 1011.36 1011.70 1012.10 1012.39 1012.55 1012.74 1012.96 1013.17 1013.36 1013.60 1013.85 1014.08 1014.28 1014.41 1014.56 1014.71 1014.89 1015.03 1015.12 1015.09 1015.13 1015.42 1015.62 1015.68 1015.62 1015.69 1015.81 1015.90 1016.21 1016.45
1007.67 1007.92 1008.14 1008.46 1009.03 1009.59 1009.91 1010.29 1010.52 1010.78 1011.01 1011.28 1011.50 1011.74 1011.99 1012.19 1012.46 1012.72 1012.89 1013.13 1013.41 1013.62 1013.83 1014.01 1014.18 1014.38 1014.58 1014.71 1014.79 1014.99 1015.06 1015.16 1015.17 1015.31 1015.64 1015.72 1015.63 1015.42 1015.37 1015.45 1015.54 1015.83 1016.14
1008.03 1008.20 1008.31 1008.58 1008.82 1009.49 1009.97 1010.24 1010.46 1010.82 1011.14 1011.36 1011.71 1012.11 1012.32 1012.49 1012.64 1012.96 1013.26 1013.52 1013.75 1013.90 1014.03 1014.24 1014.42 1014.47 1014.50 1014.65 1014.76 1014.96 1015.04 1015.19 1015.29 1015.55 1015.64 1015.72 1015.57 1015.31 1015.19 1015.37 1015.51 1015.68 1015.93
1008.03 1008.37 1008.55 1008.85 1009.07 1009.36 1009.79 1010.04 1010.28 1010.65 1011.04 1011.36 1011.56 1011.90 1012.31 1012.62 1012.90 1013.12 1013.33 1013.56 1013.70 1013.77 1013.88 1013.95 1014.04 1014.21 1014.32 1014.51 1014.72 1014.93 1015.18 1015.34 1015.47 1015.75 1015.67 1015.64 1015.41 1015.15 1014.95 1015.12 1015.24 1015.42 1015.75
1008.63 1008.75 1008.77 1008.97 1009.19 1009.45 1009.77 1010.03 1010.17 1010.39 1010.76 1011.14 1011.56 1011.94 1012.29 1012.58 1012.83 1013.01 1013.10 1013.18 1013.31 1013.40 1013.52 1013.76 1014.03 1014.27 1014.46 1014.60 1014.74 1014.86 1014.96 1015.15 1015.25 1015.48 1015.44 1015.39 1015.17 1015.09 1015.04 1015.06 1015.15 1015.33 1015.55
1008.97 1009.13 1009.23 1009.32 1009.37 1009.46 1009.67 1010.13 1010.42 1010.66 1010.98 1011.28 1011.59 1011.94 1012.16 1012.34 1012.50 1012.61 1012.84 1013.01 1013.14 1013.25 1013.46 1013.56 1013.72 1013.92 1014.12 1014.25 1014.39 1014.55 1014.73 1014.90 1015.00 1015.06 1015.03 1015.08 1015.08 1014.99 1014.96 1014.94 1015.02 1015.18 1015.31
1009.46 1009.58 1009.60 1009.56 1009.67 1009.72 1009.73 1009.96 1010.47 1010.81 1011.11 1011.40 1011.61 1011.78 1011.93 1012.07 1012.30 1012.49 1012.66 1012.83 1012.88 1012.97 1013.06 1013.30 1013.42 1013.60 1013.79 1013.98 1014.16 1014.35 1014.48 1014.62 1014.66 1014.79 1014.91 1014.86 1014.70 1014.60 1014.57 1014.57 1014.49 1014.63 1014.86
1010.56 1010.48 1010.14 1010.02 1009.93 1010.07 1010.11 1010.16 1010.51 1010.92 1011.05 1011.38 1011.63 1011.81 1011.93 1012.13 1012.26 1012.31 1012.29 1012.45 1012.58 1012.71 1012.88 1013.02 1013.13 1013.27 1013.52 1013.71 1013.85 1013.93 1014.10 1014.16 1014.40 1014.56 1014.62 1014.54 1014.49 1014.37 1014.28 1014.20 1014.15 1014.19 1014.23
1010.87 1010.86 1010.84 1010.76 1010.54 1010.35 1010.41 1010.42 1010.32 1010.65 1011.08 1011.34 1011.49 1011.67 1011.72 1011.84 1011.92 1011.97 1012.09 1012.14 1012.36 1012.46 1012.52 1012.59 1012.72 1012.93 1013.12 1013.23 1013.45 1013.53 1013.74 1014.00 1014.31 1014.40 1014.37 1014.26 1014.21 1014.08 1013.84 1013.63 1013.55 1013.69 1013.80
1010.06 1010.30 1010.50 1010.82 1011.03 1011.17 1010.84 1010.37 1010.43 1010.68 1010.95 1011.23 1011.48 1011.59 1011.76 1011.94 1012.05 1012.12 1012.15 1012.02 1012.09 1012.31 1012.57 1012.75 1012.89 1012.99 1013.08 1013.19 1013.24 1013.29 1013.42 1013.51 1013.50 1013.54 1013.58 1013.68 1013.76 1013.63 1013.32 1012.94 1012.89 1013.04 1013.17
1008.71 1009.34 1010.01 1010.33 1010.74 1011.01 1011.01 1011.02 1010.70 1010.57 1010.65 1010.91 1011.15 1011.49 1011.90 1012.23 1012.38 1012.33 1012.11 1012.08 1012.25 1012.38 1012.59 1012.84 1012.95 1012.90 1012.83 1012.79 1012.76 1012.80 1012.88 1012.97 1012.97 1012.84 1012.69 1012.87 1013.00 1012.96 1012.71 1012.37 1012.24 1012.33 1012.63
1009.44 1009.15 1009.14 1009.65 1010.00 1010.39 1010.88 1011.28 1011.29 1011.37 1011.33 1011.08 1010.96 1011.07 1011.41 1011.81 1011.97 1011.96 1012.09 1012.46 1012.63 1012.67 1012.49 1012.60 1012.55 1012.52 1012.47 1012.31 1012.23 1012.15 1012.10 1012.05 1012.01 1012.20 1012.36 1012.28 1012.04 1012.12 1012.12 1011.82 1011.89 1012.02 1012.10
1009.84 1009.26 1008.80 1008.87 1009.22 1009.78 1010.68 1011.46 1011.48 1012.13 1012.82 1013.21 1013.47 1013.79 1014.06 1014.04 1014.14 1013.99 1013.81 1013.65 1013.45 1013.18 1012.72 1012.23 1012.21 1012.25 1012.09 1011.94 1011.83 1011.73 1011.51 1011.34 1011.41 1011.38 1011.42 1011.62 1011.66 1011.35 1011.44 1011.49 1011.41 1011.51 1011.68
1010.15 1009.12 1008.29 1008.51 1009.14 1009.95 1010.84 1010.68 1012.13 1013.27 1013.23 1013.30 1013.44 1013.47 1013.39 1013.74 1014.11 1013.95 1013.42 1012.70 1012.33 1012.09 1011.83 1012.03 1011.65 1011.31 1011.71 1011.78 1011.43 1011.37 1011.35 1011.07 1010.91 1010.85 1010.91 1010.96 1011.04 1010.82 1010.85 1010.94 1010.90 1010.95 1011.21
1011.08 1010.69 1009.13 1008.76 1009.61 1010.19 1010.52 1011.40 1012.03 1012.30 1013.11 1013.42 1013.36 1013.59 1013.76 1014.22 1014.04 1012.91 1012.45 1012.21 1011.82 1011.51 1011.32 1011.46 1011.30 1011.45 1011.01 1010.81 1010.53 1010.46 1010.68 1010.76 1010.75 1010.47 1010.50 1010.46 1010.53 1010.70 1010.60 1010.54 1010.55 1010.68 1010.81
1010.80 1012.00 1010.37 1010.39 1010.17 1010.26 1010.59 1010.79 1011.37 1011.71 1012.03 1012.96 1013.57 1013.32 1013.15 1012.79 1012.89 1012.60 1012.18 1011.26 1010.25 1010.81 1010.83 1010.36 1010.72 1010.86 1010.46 1009.98 1009.92 1009.94 1010.07 1009.96 1010.23 1010.25 1010.13 1009.94 1009.95 1009.99 1010.19 1010.27 1010.18 1010.29 1010.49
1013.07 1012.20 1011.41 1011.20 1010.94 1011.24 1011.07 1011.11 1011.22 1011.02 1010.56 1010.10 1010.73 1011.49 1010.33 1011.19 1011.04 1010.35 1010.72 1009.61 1009.95 1010.49 1010.26 1009.99 1009.95 1009.86 1010.30 1009.77 1009.37 1009.32 1009.43 1009.30 1009.71 1009.67 1009.28 1009.17 1009.32 1009.45 1009.68 1009.90 1010.03 1010.06 1010.05
1012.41 1012.02 1012.08 1012.18 1012.42 1012.26 1011.55 1011.45 1011.64 1011.40 1010.66 1010.02 1010.38 1010.69 1010.47 1010.05 1010.10 1010.58 1010.41 1009.94 1009.68 1010.31 1009.83 1009.41 1009.85 1009.22 1009.99 1009.81 1009.39 1009.15 1008.95 1008.90 1009.06 1009.04 1009.10 1009.12 1009.15 1009.17 1009.09 1009.34 1009.71 1009.61 1009.47
1013.24 1013.09 1012.94 1012.69 1012.57 1012.39 1012.14 1011.96 1011.85 1011.47 1010.96 1010.59 1010.19 1010.07 1009.57 1009.73 1009.47 1010.22 1009.92 1008.93 1009.04 1009.73 1008.93 1009.39 1009.37 1009.65 1009.73 1008.98 1008.83 1008.85 1008.62 1008.55 1008.64 1008.54 1008.74 1008.93 1009.11 1009.08 1008.90 1008.85 1008.76 1009.13 1009.22
1013.84 1013.72 1013.65 1013.59 1013.31 1013.12 1012.80 1012.42 1012.12 1011.75 1011.32 1010.92 1010.19 1009.81 1009.47 1009.34 1009.23 1009.23 1008.93 1008.68 1008.37 1008.42 1008.26 1008.75 1008.61 1009.06 1008.85 1008.27 1008.13 1007.85 1008.72 1008.58 1008.79 1008.67 1008.49 1008.70 1008.80 1008.92 1008.96 1008.87 1008.77 1008.94 1009.08
1014.84 1014.41 1014.16 1014.04 1013.77 1013.62 1013.25 1013.11 1013.06 1012.72 1012.32 1011.60 1010.96 1010.23 1009.71 1008.98 1008.92 1008.89 1008.55 1008.29 1008.08 1008.25 1008.13 1008.31 1008.02 1007.80 1007.57 1007.63 1007.38 1007.50 1007.81 1008.05 1008.51 1008.62 1008.55 1008.68 1008.73 1008.91 1008.93 1008.72 1008.82 1008.78 1008.92
1015.34 1015.02 1014.50 1014.37 1014.07 1013.96 1013.71 1013.65 1013.46 1013.21 1012.84 1012.08 1011.43 1010.81 1010.10 1009.58 1009.09 1008.55 1008.47 1008.46 1008.48 1008.36 1008.24 1007.70 1007.06 1006.74 1006.71 1006.72 1006.70 1006.97 1007.52 1007.89 1008.25 1008.56 1008.53 1008.96 1009.02 1009.12 1009.21 1009.11 1009.06 1008.85 1008.84
1015.08 1014.55 1014.72 1014.77 1014.75 1014.64 1014.29 1013.97 1013.76 1013.39 1012.64 1011.95 1011.23 1010.79 1010.29 1009.89 1009.26 1008.99 1008.65 1008.57 1008.57 1008.29 1007.90 1007.33 1006.81 1006.29 1006.23 1006.31 1006.48 1006.67 1006.88 1007.49 1007.96 1008.36 1008.65 1009.04 1009.04 1009.61 1009.67 1009.76 1009.61 1009.69 1009.47
Wind_Speed
4 11 22 20 19 18 17 14 13 14 16 18 19 19 20 19 18 18 17 16 15 15 15 14 13 12 13 14 14 12 12 13 13 15 13 12 12 12 13 13 14 10 13
11 12 20 20 20 19 19 17 14 13 15 17 18 18 19 18 18 17 17 16 15 16 16 15 14 13 13 13 13 12 12 11 12 12 13 13 13 13 13 13 13 11 12
14 12 17 20 20 20 19 18 17 14 14 15 17 17 18 18 18 17 16 16 15 16 15 14 13 13 12 12 12 11 11 10 10 10 11 6 7 13 14 14 13 12 11
13 11 13 19 20 20 20 20 18 16 15 15 15 16 16 17 17 17 16 15 15 15 14 13 12 12 11 11 12 11 10 10 10 10 5 6 8 14 15 15 14 13 12
11 10 12 19 19 19 20 20 20 19 17 17 16 16 16 16 15 15 14 14 14 14 13 12 12 11 11 10 10 10 9 9 9 7 5 5 5 9 16 14 16 15 14
11 9 14 17 17 17 18 19 19 19 18 18 18 17 16 15 14 13 12 11 11 12 11 11 9 10 11 11 10 9 9 7 8 4 4 5 6 9 17 16 16 15 14
13 10 12 15 15 16 16 17 16 16 16 16 17 17 16 14 12 11 11 11 11 11 11 11 11 11 11 10 9 8 6 7 4 4 3 4 4 6 17 17 16 16 16
8 9 9 15 15 14 15 15 15 15 15 15 14 14 13 12 12 13 13 13 12 12 12 12 10 10 9 8 7 8 8 8 5 4 5 5 7 6 12 16 16 15 16
6 10 5 7 12 16 14 13 14 13 13 13 12 12 12 13 13 13 12 12 12 11 11 11 11 11 11 10 11 10 9 9 6 5 6 4 8 8 9 14 16 15 16
8 7 9 9 6 7 9 15 14 14 13 12 12 13 13 13 13 13 11 12 14 13 14 12 12 12 11 11 11 10 11 12 8 6 5 5 11 12 13 14 17 17 17
2 5 8 9 10 5 5 8 13 16 14 13 13 13 9 4 6 9 11 14 16 15 14 13 13 13 13 13 13 14 14 5 5 5 4 11 13 14 15 16 17 19 19
4 5 8 9 10 10 6 5 6 5 4 5 5 6 5 6 7 9 12 16 16 16 15 16 16 15 14 6 5 11 5 4 4 6 5 14 15 16 17 16 19 21 20
6 4 7 8 9 10 8 4 4 4 2 3 5 4 4 4 4 5 3 5 5 10 5 7 7 7 7 5 5 6 7 7 5 5 9 15 15 18 19 17 19 22 21
8 8 6 6 6 10 5 4 4 6 7 6 7 6 4 5 4 5 4 4 3 3 4 4 4 6 7 8 9 9 9 7 6 5 8 16 17 17 19 17 18 21 21
5 6 8 7 8 8 5 3 3 4 3 4 5 6 6 5 5 3 4 2 3 2 4 4 6 6 8 9 9 9 10 10 10 6 5 16 17 18 19 16 17 19 20
10 8 7 10 11 9 6 3 3 3 7 8 9 10 12 9 9 8 6 5 4 3 3 5 6 7 7 7 8 10 12 9 9 9 6 7 18 18 20 19 19 21 22
13 12 10 7 5 5 4 6 5 4 4 4 4 6 5 4 5 5 4 3 3 4 5 5 8 5 5 5 9 7 8 9 8 9 7 6 8 17 19 19 20 20 20
21 19 17 11 8 1 4 4 4 4 7 7 7 9 13 11 8 1 2 3 5 2 2 3 5 7 7 6 6 6 6 7 8 8 6 5 5 4 6 14 18 20 20
18 13 21 18 15 12 7 5 9 12 11 7 3 1 3 3 6 7 7 7 6 5 5 3 4 5 5 4 5 5 6 6 6 7 10 10 9 8 5 13 19 19 17
10 13 15 14 14 11 6 5 6 7 7 8 10 9 10 7 13 13 10 11 6 7 7 2 6 5 4 4 5 5 5 6 7 8 9 7 8 8 8 10 7 8 17
14 16 15 15 11 6 5 3 2 1 3 4 5 9 10 5 10 8 12 5 7 7 7 8 3 4 6 4 2 3 5 7 8 7 7 5 7 7 8 8 6 5 7
13 14 14 14 12 9 6 3 3 2 3 5 4 6 5 8 9 10 11 11 3 5 1 4 3 4 6 6 4 1 2 1 3 6 4 5 10 7 8 8 6 6 5
13 12 11 8 8 8 8 4 4 3 3 3 4 4 7 9 10 12 11 10 10 5 5 6 5 8 10 5 10 2 1 4 1 0 3 2 3 3 4 5 4 3 5
7 6 7 8 7 5 5 4 4 3 3 3 4 4 6 7 7 7 7 6 7 5 8 11 10 13 9 7 2 6 1 2 3 1 1 0 2 2 3 2 3 4 5
4 4 6 6 8 8 7 5 4 4 4 4 5 7 7 5 6 8 5 5 5 5 9 11 10 9 8 5 4 3 2 1 1 2 1 0 3 4 4 5 2 1 4
5 8 7 8 5 6 6 6 5 5 6 5 6 6 5 5 6 6 6 4 6 6 7 7 7 5 4 3 3 3 3 3 3 2 2 1 2 3 5 5 6 5 4
Wind_Direction
189 156 152 147 145 143 139 135 128 118 115 120 125 131 134 136 143 149 152 152 154 152 152 151 148 142 134 132 129 127 129 137 140 145 145 150 155 163 168 169 165 166 161
143 158 152 146 146 146 141 139 135 127 123 125 128 132 134 139 148 153 154 157 161 159 161 159 158 151 147 144 141 137 143 155 152 154 158 168 173 182 184 183 178 174 168
149 156 153 148 147 148 145 145 143 138 132 130 132 135 140 149 155 156 158 161 166 167 167 166 164 157 155 154 155 154 160 163 158 163 172 175 186 193 197 196 192 182 174
147 153 152 152 150 150 149 149 149 148 145 142 141 144 150 157 161 162 163 168 171 173 172 170 167 165 165 168 170 172 172 174 172 176 174 190 205 206 203 205 195 186 181
148 152 160 153 153 155 153 153 153 155 155 156 156 158 161 164 167 170 172 174 177 177 176 176 175 177 179 182 186 185 183 182 187 177 188 206 214 230 202 201 184 187 184
151 157 163 160 156 158 159 157 156 158 161 163 166 169 170 172 171 172 175 177 182 183 184 186 187 191 194 197 199 201 198 190 196 193 205 225 231 239 198 196 192 190 186
160 162 163 165 162 163 167 165 163 163 165 169 170 173 176 177 176 177 179 184 189 192 196 197 198 205 206 206 208 216 215 210 185 226 252 270 273 261 199 194 195 193 188
153 158 168 171 171 171 176 176 173 173 175 177 178 179 179 180 184 191 194 196 201 204 205 207 211 216 222 223 224 230 230 227 232 208 229 253 280 290 214 200 202 199 193
150 165 170 180 184 182 180 185 186 183 184 182 181 183 186 191 197 201 205 208 212 216 220 220 217 219 220 221 225 230 237 240 226 223 231 234 259 269 243 218 212 207 197
167 174 187 196 202 197 190 189 195 193 192 192 191 193 197 200 205 211 213 218 219 221 223 227 228 229 230 233 238 242 246 250 246 236 238 237 248 249 246 240 220 210 202
188 221 205 210 214 220 207 200 198 207 201 203 205 208 205 199 212 216 216 217 225 227 230 232 231 232 235 238 239 241 247 242 237 246 248 249 251 258 253 243 233 213 201
311 266 242 238 230 221 223 211 192 196 207 202 204 205 203 203 209 214 223 226 229 231 231 232 232 233 235 228 237 250 244 235 230 243 248 256 258 260 260 250 229 213 202
219 228 228 239 250 247 238 206 202 204 188 198 211 209 225 229 235 237 233 233 234 240 247 257 258 249 248 244 233 226 232 233 228 230 242 249 255 257 260 264 228 211 201
185 201 214 200 218 245 260 267 235 206 205 210 216 205 203 232 236 241 239 241 232 223 245 242 247 244 233 224 226 229 230 231 233 234 231 243 249 252 256 250 216 204 203
299 234 208 190 211 221 232 269 265 257 250 223 204 210 205 222 234 239 260 268 260 250 243 250 244 240 237 237 240 234 238 236 236 233 238 241 244 244 245 235 217 213 209
329 291 236 207 205 207 228 262 273 335 358 360 2 357 348 346 351 351 351 342 322 298 266 241 240 242 239 228 240 239 243 242 237 230 222 230 248 236 234 233 235 228 221
5 322 264 229 229 190 91 236 52 49 19 9 22 42 43 22 353 335 297 271 253 245 244 242 264 238 258 247 244 244 246 251 245 240 220 217 235 241 234 236 239 236 226
25 21 38 33 34 61 190 17 74 73 66 47 58 59 52 30 358 291 235 289 305 283 227 231 234 252 231 228 244 249 250 251 248 212 213 212 207 237 259 255 249 254 253
52 19 47 43 40 30 32 114 111 113 101 92 65 114 69 21 306 289 283 272 239 237 254 214 271 239 261 220 233 236 235 224 224 211 218 220 214 219 225 252 260 266 272
70 62 52 45 34 27 16 59 122 127 143 166 184 224 184 207 220 233 265 253 247 253 250 234 229 231 262 247 229 239 225 215 216 224 226 218 223 226 231 238 246 255 259
50 57 56 57 45 39 24 50 107 236 306 329 256 248 263 248 276 259 269 282 227 264 276 248 255 219 252 235 273 231 239 231 226 229 241 246 240 233 235 237 243 244 238
52 52 49 49 41 35 30 357 11 320 297 279 276 273 251 275 266 253 263 277 273 233 133 234 214 263 234 191 220 207 253 275 254 247 245 254 259 254 251 247 216 202 188
50 48 50 43 39 27 19 5 350 337 313 311 304 283 268 251 253 265 267 269 282 288 276 266 242 245 262 223 210 167 139 223 235 140 181 199 260 266 263 254 217 186 183
31 41 40 36 37 42 21 26 13 333 315 302 301 299 303 294 276 269 269 284 275 267 274 268 251 239 229 238 199 224 177 149 189 200 73 160 31 338 290 262 199 200 190
353 37 60 38 29 13 16 20 350 336 301 302 305 310 313 307 296 296 308 308 287 280 273 266 252 229 227 218 182 151 133 117 96 135 180 331 83 45 31 21 358 244 201
336 29 31 23 13 359 359 350 344 316 302 296 298 298 283 289 290 277 283 269 263 262 261 274 280 254 225 221 193 166 158 154 169 168 152 189 134 76 54 39 45 34 23